Weather History for Lafayette, LA

Change the Weather History Date:

Saturday, November 2, 2013

  Actual Average Record
Temperature  
Mean Temperature 62 °F 66 °F  
Max Temperature 72 °F 77 °F 88 °F (1971)
Min Temperature 52 °F 55 °F 30 °F (1966)
Degree Days  
Heating Degree Days 3 3  
Month to date heating degree days 3 6  
Since 1 July heating degree days 14 42  
Cooling Degree Days 0 3  
Month to date cooling degree days 1 7  
Year to date cooling degree days 2814 2896  
Growing Degree Days 14 (Base 50)    
Moisture  
Dew Point 46 °F    
Average Humidity 58    
Maximum Humidity 86    
Minimum Humidity 29    
Precipitation  
Precipitation 0.00 in 0.16 in 7.24 in (1995)
Month to date precipitation 0.00 0.31  
Year to date precipitation 52.28 50.88  
Snow  
Snow 0.00 in 0.00 in 0.00 in ()
Month to date snowfall 0.0 0.0  
Since 1 July snowfall 0.0 0.0  
Since 1 September snowfall 0.0 0.0  
Snow Depth 0.00 in    
Sea Level Pressure  
Sea Level Pressure 30.07 in    
Wind  
Wind Speed 8 mph (North)    
Max Wind Speed 21 mph    
Max Gust Speed 26 mph    
Visibility 10 miles    
Events      
T = Trace of Precipitation, MM = Missing Value Source: NWS Daily Summary

Daily Weather History Graph

Daily Weather History Graph

Search for Another Location

Airport:

Trip Planner

Search our weather history database for the weather conditions in past years. The results will help you decide how hot, cold, wet, or windy it might be!

Date:

Astronomy

Nov. 02, 2013 Rise Set
Actual Time 7:23 AM CDT 6:19 PM CDT
Civil Twilight 6:58 AM CDT 6:44 PM CDT
Nautical Twilight 6:29 AM CDT 7:12 PM CDT
Astronomical Twilight 6:01 AM CDT 7:40 PM CDT
Moon 6:23 AM CDT (11/2) 5:49 PM CDT (11/2)
Length of Visible Light 11h 46m
Length of Day
10h 56m
Waning Crescent, 1% of the Moon is Illuminated
Nov 2
Waning Crescent
Nov 3
New
Nov 9
First Quarter
Nov 17
Full
Nov 25
Last Quarter

Hourly Weather History & Observations

Time (CDT) Temp. Dew Point Humidity Pressure Visibility Wind Dir Wind Speed Gust Speed Precip Events Conditions
12:53 AM 57.9 °F 54.0 °F 87% 29.94 in 10.0 mi Calm Calm - N/A   Clear
1:53 AM 57.0 °F 53.1 °F 87% 29.95 in 10.0 mi Calm Calm - N/A   Scattered Clouds
2:53 AM 61.0 °F 55.0 °F 81% 29.99 in 10.0 mi Calm Calm - N/A   Overcast
3:53 AM 61.0 °F 53.1 °F 75% 29.99 in 10.0 mi NW 4.6 mph - N/A   Scattered Clouds
4:53 AM 57.9 °F 52.0 °F 81% 29.98 in 10.0 mi Calm Calm - N/A   Clear
5:53 AM 57.9 °F 53.1 °F 84% 30.00 in 10.0 mi Calm Calm - N/A   Overcast
6:53 AM 57.0 °F 52.0 °F 83% 30.03 in 10.0 mi Calm Calm - N/A   Clear
7:53 AM 59.0 °F 53.1 °F 81% 30.04 in 10.0 mi NNW 8.1 mph - N/A   Clear
8:53 AM 61.0 °F 52.0 °F 72% 30.07 in 10.0 mi North 15.0 mph - N/A   Clear
9:53 AM 64.0 °F 50.0 °F 60% 30.10 in 10.0 mi North 10.4 mph 20.7 mph N/A   Clear
10:53 AM 66.9 °F 48.0 °F 51% 30.12 in 10.0 mi North 18.4 mph 23.0 mph N/A   Clear
11:53 AM 70.0 °F 48.0 °F 46% 30.12 in 10.0 mi North 17.3 mph 25.3 mph N/A   Clear
12:53 PM 71.1 °F 45.0 °F 39% 30.11 in 10.0 mi North 12.7 mph 20.7 mph N/A   Clear
1:53 PM 72.0 °F 42.1 °F 34% 30.09 in 10.0 mi NNW 13.8 mph - N/A   Clear
2:53 PM 72.0 °F 39.0 °F 30% 30.07 in 10.0 mi NNW 12.7 mph 21.9 mph N/A   Clear
3:53 PM 71.1 °F 39.0 °F 31% 30.06 in 10.0 mi North 16.1 mph 21.9 mph N/A   Clear
4:53 PM 71.1 °F 37.9 °F 30% 30.07 in 10.0 mi NNW 11.5 mph 20.7 mph N/A   Clear
5:53 PM 68.0 °F 36.0 °F 31% 30.08 in 10.0 mi NNW 8.1 mph - N/A   Clear
6:53 PM 63.0 °F 37.0 °F 38% 30.11 in 10.0 mi NW 6.9 mph - N/A   Clear
7:53 PM 61.0 °F 39.0 °F 44% 30.14 in 10.0 mi NNW 6.9 mph - N/A   Clear
8:53 PM 59.0 °F 39.9 °F 49% 30.17 in 10.0 mi North 4.6 mph - N/A   Clear
9:53 PM 55.9 °F 43.0 °F 62% 30.18 in 10.0 mi North 6.9 mph - N/A   Clear
10:53 PM 55.9 °F 43.0 °F 62% 30.19 in 10.0 mi North 6.9 mph - N/A   Clear
11:53 PM 53.1 °F 44.1 °F 71% 30.20 in 10.0 mi NNE 6.9 mph - N/A   Clear